Home   Weather   Richmond   Past weeks

Flag for USA Past Weather in Richmond, Virginia, USA — Yesterday and Last 2 Weeks

73 °F

Passing clouds.

Feels Like: 74 °F
Forecast: 54 / 74 °F
Wind: 8 mph from Southeast

Location: Richmond International Airport

Current Time: Oct 20, 2016 at 8:35:28 PM

Latest Report: Oct 20, 2016 at 7:54 PM

Visibility: 10 mi

Pressure: 29.94 "Hg

Humidity: 76%

Dew Point: 65 °F

Location of RichmondLocation

Past Weather in Richmond — Graph


Richmond Temperature Yesterday

Maximum temperature yesterday: 86 °F (at 2:54 PM)
Minimum temperature yesterday: 62 °F (at 6:54 AM)
Average temperature yesterday: 73 °F

High & Low Weather Summary for the Past Weeks

High86 °F (Oct 19, 2:54 PM)100% (Oct 13, 3:54 AM)30.47 "Hg (Oct 13, 3:54 AM)
Low43 °F (Oct 11, 6:54 AM)38% (Oct 11, 3:54 PM)29.81 "Hg (Oct 9, 1:54 AM)
Average63 °F78%30.17 "Hg
* Reported Oct 5 6:54 PM — Oct 20 6:54 PM, Richmond, Weather by CustomWeather, © 2016

Note: Actual official high and low records may vary slightly from our data, if they occured in-between our weather recording intervals... More about our weather records


Richmond Weather History for the Previous 24 Hours

Scroll right to see more
Time TempWeatherWind HumidityBarometerVisibility
6:54 PM
Thu, Oct 20
73 °FPassing clouds.9 mph79%29.94 "Hg10 mi
5:54 PM78 °FPartly sunny.7 mph64%29.94 "Hg10 mi
4:54 PM81 °FPartly sunny.9 mph56%29.95 "Hg10 mi
3:54 PM83 °FScattered clouds.9 mph55%29.95 "Hg10 mi
2:54 PM83 °FScattered clouds.12 mph53%29.96 "Hg10 mi
1:54 PM83 °FScattered clouds.12 mph55%29.98 "Hg10 mi
12:54 PM82 °FScattered clouds.8 mph56%30.01 "Hg10 mi
11:54 AM80 °FScattered clouds.9 mph62%30.04 "Hg10 mi
10:54 AM78 °FPassing clouds.5 mph69%30.05 "Hg10 mi
9:54 AM72 °FPassing clouds.No wind84%30.07 "Hg8 mi
8:54 AM67 °FFog.5 mph97%30.07 "Hg4 mi
7:54 AM63 °FFog.3 mph97%30.06 "Hg4 mi
6:54 AM63 °FFog.No wind97%30.05 "Hg6 mi
5:54 AM64 °FFog.3 mph97%30.04 "Hg5 mi
4:54 AM64 °FFog.No wind97%30.04 "Hg5 mi
3:54 AM65 °FClear.No wind94%30.04 "Hg8 mi
2:54 AM66 °FClear.No wind93%30.05 "Hg10 mi
1:54 AM67 °FPassing clouds.6 mph90%30.05 "Hg10 mi
12:54 AM68 °FClear.No wind87%30.07 "Hg10 mi
11:54 PM
Wed, Oct 19
68 °FClear.No wind87%30.08 "Hg10 mi
10:54 PM70 °FClear.No wind81%30.09 "Hg10 mi
9:54 PM71 °FClear.No wind81%30.06 "Hg10 mi
8:54 PM73 °FClear.No wind79%30.05 "Hg10 mi
Weather by CustomWeather, © 2016

See weather overviewHow to use our weather pages